This is the latest recevied weather packets stored in our database for station/object SR5NLK-1. If no packets are shown the sender has not sent any weather packets the latest 10 day(s).
| Time | Temp. | Humidity | Pressure | Rain* | Wind** | Luminosity | Snow |
|---|---|---|---|---|---|---|---|
| 1777538412 | 13.89° C | 30% | 1031.2 hPa | 0 mm | - | - | - |
| 1777538112 | 15° C | 30% | 1018.5 hPa | 0 mm | - | - | - |
| 1777537811 | 15° C | 31% | 1027.9 hPa | 0 mm | - | - | - |
| 1777537512 | 15.56° C | 30% | 1034.3 hPa | 0 mm | - | - | - |
| 1777537212 | 16.11° C | 30% | 1031.4 hPa | 0 mm | - | - | - |
| 1777536912 | 16.11° C | 31% | 1040.6 hPa | 0 mm | - | - | - |
| 1777536612 | 16.11° C | 33% | 1031.1 hPa | 0 mm | - | - | - |
| 1777536312 | 15.56° C | 34% | 1021.7 hPa | 0 mm | - | - | - |
| 1777536106 | 15° C | 34% | 1009 hPa | 0 mm | - | - | - |
| 1777536012 | 15° C | 34% | 1009 hPa | 0 mm | - | - | - |
| 1777535712 | 13.89° C | 36% | 1028 hPa | 0 mm | - | - | - |
| 1777535412 | 12.78° C | 36% | 1028 hPa | 0 mm | - | - | - |
| 1777535112 | 12.78° C | 35% | 1024.8 hPa | 0 mm | - | - | - |
| 1777534812 | 12.78° C | 36% | 1034.3 hPa | 0 mm | - | - | - |
| 1777534512 | 13.33° C | 35% | 1012.1 hPa | 0 mm | - | - | - |
| 1777534212 | 13.89° C | 35% | 1024.8 hPa | 0 mm | - | - | - |
| 1777533912 | 14.44° C | 35% | 1021.6 hPa | 0 mm | - | - | - |
| 1777533851 | 14.44° C | 35% | 1009 hPa | 0 mm | - | - | - |
| 1777533612 | 14.44° C | 36% | 1031.2 hPa | 0 mm | - | - | - |
| 1777533312 | 14.44° C | 36% | 1031.2 hPa | 0 mm | - | - | - |
| 1777533012 | 14.44° C | 35% | 1018.5 hPa | 0 mm | - | - | - |
| 1777532712 | 15° C | 35% | 998.2 hPa | 0 mm | - | - | - |
| 1777532412 | 15.56° C | 37% | 1015.3 hPa | 0 mm | - | - | - |
| 1777532112 | 14.44° C | 38% | 1009 hPa | 0 mm | - | - | - |
| 1777531871 | 13.89° C | 38% | 1005.9 hPa | 0 mm | - | - | - |
* Rain latest hour (hover to see other rain measurements)
** Current wind speed in m/s (hover to see current wind gust speed)